Location: The Saddle
(36.8333°N, 80.3417°W)
Time: 17:40:51
(UTC-05:00)

X-37B - Pass Details

Date: 05 December 2022
Orbit: 277 x 277 km, 45.0° (Epoch: 01 November)

Event Time Altitude Azimuth Distance (km) Brightness Sun altitude
Rises 18:27:15 0° 226° (SW) 1,900 5.2 -16.1°
Reaches altitude 10° 18:29:12 10° 219° (SW) 1,092 3.7 -16.5°
Enters shadow 18:31:11 37° 171° (S) 446 0.9 -16.9°
